Year,Month,Day,Hour,Minute,Value (Times are PST for temperature in C)
2013,09,03,00,00,16.60
2013,09,03,00,01,16.60
2013,09,03,00,02,16.50
2013,09,03,00,03,16.50
2013,09,03,00,04,16.50
2013,09,03,00,05,16.40
2013,09,03,00,06,16.40
2013,09,03,00,07,16.30
2013,09,03,00,08,16.30
2013,09,03,00,09,16.30
2013,09,03,00,10,16.20
2013,09,03,00,11,16.20
2013,09,03,00,12,16.10
2013,09,03,00,13,16.10
2013,09,03,00,14,16.10
2013,09,03,00,15,16.00
2013,09,03,00,16,16.00
2013,09,03,00,17,16.00
2013,09,03,00,18,15.90
2013,09,03,00,19,15.90
2013,09,03,00,20,15.90
2013,09,03,00,21,15.90
2013,09,03,00,22,15.80
2013,09,03,00,23,15.80
2013,09,03,00,24,15.80
2013,09,03,00,25,15.80
2013,09,03,00,26,15.80
2013,09,03,00,27,15.70
2013,09,03,00,28,15.70
2013,09,03,00,29,15.70
2013,09,03,00,30,15.70
2013,09,03,00,31,15.70
2013,09,03,00,32,15.70
2013,09,03,00,33,15.60
2013,09,03,00,34,15.60
2013,09,03,00,35,15.60
2013,09,03,00,36,15.60
2013,09,03,00,37,15.50
2013,09,03,00,38,15.50
2013,09,03,00,39,15.50
2013,09,03,00,40,15.50
2013,09,03,00,41,15.40
2013,09,03,00,42,15.40
2013,09,03,00,43,15.40
2013,09,03,00,44,15.40
2013,09,03,00,45,15.40
2013,09,03,00,46,15.40
2013,09,03,00,47,15.40
2013,09,03,00,48,15.30
2013,09,03,00,49,15.30
2013,09,03,00,50,15.30
2013,09,03,00,51,15.30
2013,09,03,00,52,15.30
2013,09,03,00,53,15.20
2013,09,03,00,54,15.20
2013,09,03,00,55,15.20
2013,09,03,00,56,15.20
2013,09,03,00,57,15.20
2013,09,03,00,58,15.20
2013,09,03,00,59,15.10
2013,09,03,01,00,15.10
2013,09,03,01,01,15.10
2013,09,03,01,02,15.10
2013,09,03,01,03,15.10
2013,09,03,01,04,15.10
2013,09,03,01,05,15.10
2013,09,03,01,06,15.10
2013,09,03,01,07,15.10
2013,09,03,01,08,15.10
2013,09,03,01,09,15.10
2013,09,03,01,10,15.00
2013,09,03,01,11,15.00
2013,09,03,01,12,15.00
2013,09,03,01,13,15.00
2013,09,03,01,14,14.90
2013,09,03,01,15,14.90
2013,09,03,01,16,14.90
2013,09,03,01,17,14.90
2013,09,03,01,18,14.90
2013,09,03,01,19,14.90
2013,09,03,01,20,14.80
2013,09,03,01,21,14.80
2013,09,03,01,22,14.80
2013,09,03,01,23,14.80
2013,09,03,01,24,14.80
2013,09,03,01,25,14.80
2013,09,03,01,26,14.80
2013,09,03,01,27,14.80
2013,09,03,01,28,14.80
2013,09,03,01,29,14.70
2013,09,03,01,30,14.70
2013,09,03,01,31,14.70
2013,09,03,01,32,14.70
2013,09,03,01,33,14.70
2013,09,03,01,34,14.70
2013,09,03,01,35,14.70
2013,09,03,01,36,14.70
2013,09,03,01,37,14.70
2013,09,03,01,38,14.60
2013,09,03,01,39,14.60
2013,09,03,01,40,14.60
2013,09,03,01,41,14.60
2013,09,03,01,42,14.60
2013,09,03,01,43,14.60
2013,09,03,01,44,14.60
2013,09,03,01,45,14.60
2013,09,03,01,46,14.60
2013,09,03,01,47,14.60
2013,09,03,01,48,14.50
2013,09,03,01,49,14.50
2013,09,03,01,50,14.50
2013,09,03,01,51,14.50
2013,09,03,01,52,14.40
2013,09,03,01,53,14.40
2013,09,03,01,54,14.40
2013,09,03,01,55,14.40
2013,09,03,01,56,14.40
2013,09,03,01,57,14.30
2013,09,03,01,58,14.30
2013,09,03,01,59,14.30
2013,09,03,02,00,14.30
2013,09,03,02,01,14.30
2013,09,03,02,02,14.30
2013,09,03,02,03,14.30
2013,09,03,02,04,14.30
2013,09,03,02,05,14.30
2013,09,03,02,06,14.30
2013,09,03,02,07,14.30
2013,09,03,02,08,14.30
2013,09,03,02,09,14.30
2013,09,03,02,10,14.30
2013,09,03,02,11,14.30
2013,09,03,02,12,14.30
2013,09,03,02,13,14.20
2013,09,03,02,14,14.20
2013,09,03,02,15,14.20
2013,09,03,02,16,14.20
2013,09,03,02,17,14.20
2013,09,03,02,18,14.20
2013,09,03,02,19,14.20
2013,09,03,02,20,14.20
2013,09,03,02,21,14.10
2013,09,03,02,22,14.10
2013,09,03,02,23,14.10
2013,09,03,02,24,14.10
2013,09,03,02,25,14.10
2013,09,03,02,26,14.10
2013,09,03,02,27,14.10
2013,09,03,02,28,14.10
2013,09,03,02,29,14.00
2013,09,03,02,30,14.00
2013,09,03,02,31,14.00
2013,09,03,02,32,14.00
2013,09,03,02,33,14.00
2013,09,03,02,34,14.00
2013,09,03,02,35,13.90
2013,09,03,02,36,13.90
2013,09,03,02,37,13.90
2013,09,03,02,38,13.90
2013,09,03,02,39,13.90
2013,09,03,02,40,13.90
2013,09,03,02,41,13.90
2013,09,03,02,42,13.90
2013,09,03,02,43,13.90
2013,09,03,02,44,13.90
2013,09,03,02,45,13.80
2013,09,03,02,46,13.80
2013,09,03,02,47,13.80
2013,09,03,02,48,13.80
2013,09,03,02,49,13.80
2013,09,03,02,50,13.70
2013,09,03,02,51,13.70
2013,09,03,02,52,13.70
2013,09,03,02,53,13.70
2013,09,03,02,54,13.70
2013,09,03,02,55,13.70
2013,09,03,02,56,13.70
2013,09,03,02,57,13.70
2013,09,03,02,58,13.70
2013,09,03,02,59,13.70
2013,09,03,03,00,13.60
2013,09,03,03,01,13.60
2013,09,03,03,02,13.60
2013,09,03,03,03,13.60
2013,09,03,03,04,13.60
2013,09,03,03,05,13.60
2013,09,03,03,06,13.60
2013,09,03,03,07,13.60
2013,09,03,03,08,13.60
2013,09,03,03,09,13.50
2013,09,03,03,10,13.50
2013,09,03,03,11,13.50
2013,09,03,03,12,13.50
2013,09,03,03,13,13.40
2013,09,03,03,14,13.40
2013,09,03,03,15,13.40
2013,09,03,03,16,13.40
2013,09,03,03,17,13.40
2013,09,03,03,18,13.40
2013,09,03,03,19,13.40
2013,09,03,03,20,13.40
2013,09,03,03,21,13.30
2013,09,03,03,22,13.30
2013,09,03,03,23,13.30
2013,09,03,03,24,13.30
2013,09,03,03,25,13.40
2013,09,03,03,26,13.40
2013,09,03,03,27,13.40
2013,09,03,03,28,13.40
2013,09,03,03,29,13.40
2013,09,03,03,30,13.30
2013,09,03,03,31,13.30
2013,09,03,03,32,13.30
2013,09,03,03,33,13.30
2013,09,03,03,34,13.30
2013,09,03,03,35,13.30
2013,09,03,03,36,13.30
2013,09,03,03,37,13.30
2013,09,03,03,38,13.30
2013,09,03,03,39,13.30
2013,09,03,03,40,13.30
2013,09,03,03,41,13.30
2013,09,03,03,42,13.30
2013,09,03,03,43,13.20
2013,09,03,03,44,13.20
2013,09,03,03,45,13.20
2013,09,03,03,46,13.30
2013,09,03,03,47,13.30
2013,09,03,03,48,13.30
2013,09,03,03,49,13.30
2013,09,03,03,50,13.30
2013,09,03,03,51,13.30
2013,09,03,03,52,13.30
2013,09,03,03,53,13.30
2013,09,03,03,54,13.30
2013,09,03,03,55,13.30
2013,09,03,03,56,13.30
2013,09,03,03,57,13.30
2013,09,03,03,58,13.30
2013,09,03,03,59,13.30
2013,09,03,04,00,13.40
2013,09,03,04,01,13.40
2013,09,03,04,02,13.40
2013,09,03,04,03,13.40
2013,09,03,04,04,13.40
2013,09,03,04,05,13.40
2013,09,03,04,06,13.40
2013,09,03,04,07,13.40
2013,09,03,04,08,13.40
2013,09,03,04,09,13.40
2013,09,03,04,10,13.40
2013,09,03,04,11,13.50
2013,09,03,04,12,13.50
2013,09,03,04,13,13.50
2013,09,03,04,14,13.60
2013,09,03,04,15,13.60
2013,09,03,04,16,13.60
2013,09,03,04,17,13.60
2013,09,03,04,18,13.70
2013,09,03,04,19,13.70
2013,09,03,04,20,13.70
2013,09,03,04,21,13.70
2013,09,03,04,22,13.70
2013,09,03,04,23,13.70
2013,09,03,04,24,13.70
2013,09,03,04,25,13.70
2013,09,03,04,26,13.70
2013,09,03,04,27,13.70
2013,09,03,04,28,13.70
2013,09,03,04,29,13.70
2013,09,03,04,30,13.70
2013,09,03,04,31,13.70
2013,09,03,04,32,13.80
2013,09,03,04,33,13.80
2013,09,03,04,34,13.80
2013,09,03,04,35,13.80
2013,09,03,04,36,13.80
2013,09,03,04,37,13.80
2013,09,03,04,38,13.90
2013,09,03,04,39,13.90
2013,09,03,04,40,13.90
2013,09,03,04,41,13.90
2013,09,03,04,42,13.90
2013,09,03,04,43,13.90
2013,09,03,04,44,13.90
2013,09,03,04,45,13.90
2013,09,03,04,46,13.90
2013,09,03,04,47,13.90
2013,09,03,04,48,13.90
2013,09,03,04,49,13.90
2013,09,03,04,50,13.90
2013,09,03,04,51,13.90
2013,09,03,04,52,13.90
2013,09,03,04,53,13.90
2013,09,03,04,54,14.00
2013,09,03,04,55,14.00
2013,09,03,04,56,14.00
2013,09,03,04,57,14.00
2013,09,03,04,58,14.10
2013,09,03,04,59,14.10
2013,09,03,05,00,14.10
2013,09,03,05,01,14.10
2013,09,03,05,02,14.20
2013,09,03,05,03,14.20
2013,09,03,05,04,14.20
2013,09,03,05,05,14.20
2013,09,03,05,06,14.20
2013,09,03,05,07,14.20
2013,09,03,05,08,14.20
2013,09,03,05,09,14.30
2013,09,03,05,10,14.30
2013,09,03,05,11,14.30
2013,09,03,05,12,14.40
2013,09,03,05,13,14.40
2013,09,03,05,14,14.40
2013,09,03,05,15,14.50
2013,09,03,05,16,14.50
2013,09,03,05,17,14.50
2013,09,03,05,18,14.50
2013,09,03,05,19,14.60
2013,09,03,05,20,14.60
2013,09,03,05,21,14.60
2013,09,03,05,22,14.60
2013,09,03,05,23,14.60
2013,09,03,05,24,14.60
2013,09,03,05,25,14.60
2013,09,03,05,26,14.60
2013,09,03,05,27,14.60
2013,09,03,05,28,14.60
2013,09,03,05,29,14.60
2013,09,03,05,30,14.60
2013,09,03,05,31,14.60
2013,09,03,05,32,14.60
2013,09,03,05,33,14.60
2013,09,03,05,34,14.60
2013,09,03,05,35,14.60
2013,09,03,05,36,14.60
2013,09,03,05,37,14.60
2013,09,03,05,38,14.60
2013,09,03,05,39,14.60
2013,09,03,05,40,14.60
2013,09,03,05,41,14.60
2013,09,03,05,42,14.60
2013,09,03,05,43,14.70
2013,09,03,05,44,14.70
2013,09,03,05,45,14.70
2013,09,03,05,46,14.70
2013,09,03,05,47,14.70
2013,09,03,05,48,14.70
2013,09,03,05,49,14.70
2013,09,03,05,50,14.70
2013,09,03,05,51,14.70
2013,09,03,05,52,14.70
2013,09,03,05,53,14.70
2013,09,03,05,54,14.70
2013,09,03,05,55,14.70
2013,09,03,05,56,14.70
2013,09,03,05,57,14.70
2013,09,03,05,58,14.70
2013,09,03,05,59,14.70
2013,09,03,06,00,14.70
2013,09,03,06,01,14.70
2013,09,03,06,02,14.60
2013,09,03,06,03,14.60
2013,09,03,06,04,14.60
2013,09,03,06,05,14.60
2013,09,03,06,06,14.60
2013,09,03,06,07,14.50
2013,09,03,06,08,14.50
2013,09,03,06,09,14.50
2013,09,03,06,10,14.50
2013,09,03,06,11,14.50
2013,09,03,06,12,14.50
2013,09,03,06,13,14.50
2013,09,03,06,14,14.60
2013,09,03,06,15,14.60
2013,09,03,06,16,14.60
2013,09,03,06,17,14.60
2013,09,03,06,18,14.60
2013,09,03,06,19,14.50
2013,09,03,06,20,14.50
2013,09,03,06,21,14.50
2013,09,03,06,22,14.40
2013,09,03,06,23,14.40
2013,09,03,06,24,14.40
2013,09,03,06,25,14.40
2013,09,03,06,26,14.40
2013,09,03,06,27,14.40
2013,09,03,06,28,14.40
2013,09,03,06,29,14.40
2013,09,03,06,30,14.40
2013,09,03,06,31,14.40
2013,09,03,06,32,14.40
2013,09,03,06,33,14.40
2013,09,03,06,34,14.40
2013,09,03,06,35,14.40
2013,09,03,06,36,14.40
2013,09,03,06,37,14.40
2013,09,03,06,38,14.30
2013,09,03,06,39,14.40
2013,09,03,06,40,14.40
2013,09,03,06,41,14.40
2013,09,03,06,42,14.40
2013,09,03,06,43,14.30
2013,09,03,06,44,14.30
2013,09,03,06,45,14.40
2013,09,03,06,46,14.40
2013,09,03,06,47,14.40
2013,09,03,06,48,14.40
2013,09,03,06,49,14.40
2013,09,03,06,50,14.40
2013,09,03,06,51,14.40
2013,09,03,06,52,14.40
2013,09,03,06,53,14.40
2013,09,03,06,54,14.40
2013,09,03,06,55,14.40
2013,09,03,06,56,14.40
2013,09,03,06,57,14.40
2013,09,03,06,58,14.30
2013,09,03,06,59,14.30
2013,09,03,07,00,14.40
2013,09,03,07,01,14.40
2013,09,03,07,02,14.30
2013,09,03,07,03,14.40
2013,09,03,07,04,14.40
2013,09,03,07,05,14.40
2013,09,03,07,06,14.40
2013,09,03,07,07,14.40
2013,09,03,07,08,14.40
2013,09,03,07,09,14.40
2013,09,03,07,10,14.40
2013,09,03,07,11,14.40
2013,09,03,07,12,14.40
2013,09,03,07,13,14.40
2013,09,03,07,14,14.40
2013,09,03,07,15,14.50
2013,09,03,07,16,14.50
2013,09,03,07,17,14.50
2013,09,03,07,18,14.50
2013,09,03,07,19,14.50
2013,09,03,07,20,14.50
2013,09,03,07,21,14.50
2013,09,03,07,22,14.50
2013,09,03,07,23,14.50
2013,09,03,07,24,14.50
2013,09,03,07,25,14.50
2013,09,03,07,26,14.50
2013,09,03,07,27,14.50
2013,09,03,07,28,14.50
2013,09,03,07,29,14.50
2013,09,03,07,30,14.40
2013,09,03,07,31,14.40
2013,09,03,07,32,14.40
2013,09,03,07,33,14.40
2013,09,03,07,34,14.50
2013,09,03,07,35,14.50
2013,09,03,07,36,14.50
2013,09,03,07,37,14.50
2013,09,03,07,38,14.50
2013,09,03,07,39,14.50
2013,09,03,07,40,14.50
2013,09,03,07,41,14.50
2013,09,03,07,42,14.50
2013,09,03,07,43,14.50
2013,09,03,07,44,14.50
2013,09,03,07,45,14.50
2013,09,03,07,46,14.50
2013,09,03,07,47,14.50
2013,09,03,07,48,14.50
2013,09,03,07,49,14.50
2013,09,03,07,50,14.50
2013,09,03,07,51,14.50
2013,09,03,07,52,14.50
2013,09,03,07,53,14.50
2013,09,03,07,54,14.60
2013,09,03,07,55,14.50
2013,09,03,07,56,14.60
2013,09,03,07,57,14.60
2013,09,03,07,58,14.60
2013,09,03,07,59,14.60
2013,09,03,08,00,14.60
2013,09,03,08,01,14.60
2013,09,03,08,02,14.60
2013,09,03,08,03,14.60
2013,09,03,08,04,14.70
2013,09,03,08,05,14.70
2013,09,03,08,06,14.70
2013,09,03,08,07,14.70
2013,09,03,08,08,14.70
2013,09,03,08,09,14.70
2013,09,03,08,10,14.70
2013,09,03,08,11,14.70
2013,09,03,08,12,14.70
2013,09,03,08,13,14.70
2013,09,03,08,14,14.70
2013,09,03,08,15,14.70
2013,09,03,08,16,14.70
2013,09,03,08,17,14.70
2013,09,03,08,18,14.70
2013,09,03,08,19,14.80
2013,09,03,08,20,14.80
2013,09,03,08,21,14.80
2013,09,03,08,22,14.80
2013,09,03,08,23,14.80
2013,09,03,08,24,14.80
2013,09,03,08,25,14.80
2013,09,03,08,26,14.90
2013,09,03,08,27,14.90
2013,09,03,08,28,14.90
2013,09,03,08,29,14.90
2013,09,03,08,30,14.90
2013,09,03,08,31,14.90
2013,09,03,08,32,14.90
2013,09,03,08,33,14.90
2013,09,03,08,34,15.00
2013,09,03,08,35,15.00
2013,09,03,08,36,15.00
2013,09,03,08,37,15.00
2013,09,03,08,38,14.90
2013,09,03,08,39,14.90
2013,09,03,08,40,14.90
2013,09,03,08,41,14.90
2013,09,03,08,42,14.90
2013,09,03,08,43,14.90
2013,09,03,08,44,14.90
2013,09,03,08,45,14.90
2013,09,03,08,46,14.90
2013,09,03,08,47,14.90
2013,09,03,08,48,14.90
2013,09,03,08,49,14.90
2013,09,03,08,50,14.90
2013,09,03,08,51,14.80
2013,09,03,08,52,14.90
2013,09,03,08,53,14.80
2013,09,03,08,54,14.80
2013,09,03,08,55,14.80
2013,09,03,08,56,14.80
2013,09,03,08,57,14.80
2013,09,03,08,58,14.80
2013,09,03,08,59,14.90
2013,09,03,09,00,14.90
2013,09,03,09,01,14.90
2013,09,03,09,02,14.90
2013,09,03,09,03,15.00
2013,09,03,09,04,15.00
2013,09,03,09,05,15.00
2013,09,03,09,06,15.00
2013,09,03,09,07,15.00
2013,09,03,09,08,15.00
2013,09,03,09,09,15.00
2013,09,03,09,10,15.00
2013,09,03,09,11,15.10
2013,09,03,09,12,15.10
2013,09,03,09,13,15.10
2013,09,03,09,14,15.10
2013,09,03,09,15,15.10
2013,09,03,09,16,15.10
2013,09,03,09,17,15.10
2013,09,03,09,18,15.20
2013,09,03,09,19,15.20
2013,09,03,09,20,15.20
2013,09,03,09,21,15.20
2013,09,03,09,22,15.20
2013,09,03,09,23,15.20
2013,09,03,09,24,15.20
2013,09,03,09,25,15.20
2013,09,03,09,26,15.20
2013,09,03,09,27,15.20
2013,09,03,09,28,15.20
2013,09,03,09,29,15.20
2013,09,03,09,30,15.20
2013,09,03,09,31,15.20
2013,09,03,09,32,15.20
2013,09,03,09,33,15.20
2013,09,03,09,34,15.20
2013,09,03,09,35,15.20
2013,09,03,09,36,15.20
2013,09,03,09,37,15.20
2013,09,03,09,38,15.20
2013,09,03,09,39,15.20
2013,09,03,09,40,15.20
2013,09,03,09,41,15.20
2013,09,03,09,42,15.30
2013,09,03,09,43,15.30
2013,09,03,09,44,15.30
2013,09,03,09,45,15.30
2013,09,03,09,46,15.30
2013,09,03,09,47,15.30
2013,09,03,09,48,15.30
2013,09,03,09,49,15.30
2013,09,03,09,50,15.40
2013,09,03,09,51,15.40
2013,09,03,09,52,15.40
2013,09,03,09,53,15.40
2013,09,03,09,54,15.30
2013,09,03,09,55,15.30
2013,09,03,09,56,15.30
2013,09,03,09,57,15.30
2013,09,03,09,58,15.30
2013,09,03,09,59,15.30
2013,09,03,10,00,15.30
2013,09,03,10,01,15.30
2013,09,03,10,02,15.30
2013,09,03,10,03,15.20
2013,09,03,10,04,15.20
2013,09,03,10,05,15.20
2013,09,03,10,06,15.20
2013,09,03,10,07,15.20
2013,09,03,10,08,15.10
2013,09,03,10,09,15.10
2013,09,03,10,10,15.10
2013,09,03,10,11,15.00
2013,09,03,10,12,15.00
2013,09,03,10,13,14.90
2013,09,03,10,14,14.90
2013,09,03,10,15,14.90
2013,09,03,10,16,14.90
2013,09,03,10,17,14.90
2013,09,03,10,18,14.90
2013,09,03,10,19,14.90
2013,09,03,10,20,14.90
2013,09,03,10,21,14.90
2013,09,03,10,22,14.90
2013,09,03,10,23,14.90
2013,09,03,10,24,14.90
2013,09,03,10,25,14.90
2013,09,03,10,26,14.90
2013,09,03,10,27,14.90
2013,09,03,10,28,14.90
2013,09,03,10,29,14.90
2013,09,03,10,30,14.90
2013,09,03,10,31,14.90
2013,09,03,10,32,15.00
2013,09,03,10,33,15.00
2013,09,03,10,34,15.00
2013,09,03,10,35,15.00
2013,09,03,10,36,15.00
2013,09,03,10,37,15.10
2013,09,03,10,38,15.10
2013,09,03,10,39,15.10
2013,09,03,10,40,15.10
2013,09,03,10,41,15.10
2013,09,03,10,42,15.20
2013,09,03,10,43,15.20
2013,09,03,10,44,15.20
2013,09,03,10,45,15.20
2013,09,03,10,46,15.20
2013,09,03,10,47,15.20
2013,09,03,10,48,15.20
2013,09,03,10,49,15.20
2013,09,03,10,50,15.10
2013,09,03,10,51,15.00
2013,09,03,10,52,14.90
2013,09,03,10,53,14.80
2013,09,03,10,54,14.70
2013,09,03,10,55,14.60
2013,09,03,10,56,14.50
2013,09,03,10,57,14.40
2013,09,03,10,58,14.30
2013,09,03,10,59,14.20
2013,09,03,11,00,14.20
2013,09,03,11,01,14.10
2013,09,03,11,02,14.10
2013,09,03,11,03,14.00
2013,09,03,11,04,14.00
2013,09,03,11,05,13.90
2013,09,03,11,06,13.90
2013,09,03,11,07,13.90
2013,09,03,11,08,13.90
2013,09,03,11,09,13.90
2013,09,03,11,10,13.90
2013,09,03,11,11,13.90
2013,09,03,11,12,13.90
2013,09,03,11,13,14.00
2013,09,03,11,14,14.00
2013,09,03,11,15,14.00
2013,09,03,11,16,14.00
2013,09,03,11,17,14.10
2013,09,03,11,18,14.10
2013,09,03,11,19,14.10
2013,09,03,11,20,14.20
2013,09,03,11,21,14.20
2013,09,03,11,22,14.30
2013,09,03,11,23,14.30
2013,09,03,11,24,14.40
2013,09,03,11,25,14.40
2013,09,03,11,26,14.40
2013,09,03,11,27,14.40
2013,09,03,11,28,14.50
2013,09,03,11,29,14.50
2013,09,03,11,30,14.60
2013,09,03,11,31,14.70
2013,09,03,11,32,14.70
2013,09,03,11,33,14.80
2013,09,03,11,34,14.90
2013,09,03,11,35,15.00
2013,09,03,11,36,15.10
2013,09,03,11,37,15.10
2013,09,03,11,38,15.20
2013,09,03,11,39,15.30
2013,09,03,11,40,15.30
2013,09,03,11,41,15.40
2013,09,03,11,42,15.50
2013,09,03,11,43,15.50
2013,09,03,11,44,15.60
2013,09,03,11,45,15.60
2013,09,03,11,46,15.70
2013,09,03,11,47,15.70
2013,09,03,11,48,15.80
2013,09,03,11,49,15.80
2013,09,03,11,50,15.90
2013,09,03,11,51,15.90
2013,09,03,11,52,16.00
2013,09,03,11,53,16.10
2013,09,03,11,54,16.10
2013,09,03,11,55,16.20
2013,09,03,11,56,16.20
2013,09,03,11,57,16.20
2013,09,03,11,58,16.30
2013,09,03,11,59,16.30
2013,09,03,12,00,16.30
2013,09,03,12,01,16.40
2013,09,03,12,02,16.40
2013,09,03,12,03,16.40
2013,09,03,12,04,16.40
2013,09,03,12,05,16.40
2013,09,03,12,06,16.40
2013,09,03,12,07,16.30
2013,09,03,12,08,16.30
2013,09,03,12,09,16.30
2013,09,03,12,10,16.30
2013,09,03,12,11,16.30
2013,09,03,12,12,16.40
2013,09,03,12,13,16.50
2013,09,03,12,14,16.60
2013,09,03,12,15,16.70
2013,09,03,12,16,16.80
2013,09,03,12,17,16.90
2013,09,03,12,18,17.00
2013,09,03,12,19,17.10
2013,09,03,12,20,17.10
2013,09,03,12,21,17.10
2013,09,03,12,22,17.20
2013,09,03,12,23,17.20
2013,09,03,12,24,17.20
2013,09,03,12,25,17.30
2013,09,03,12,26,17.20
2013,09,03,12,27,17.20
2013,09,03,12,28,17.30
2013,09,03,12,29,17.30
2013,09,03,12,30,17.30
2013,09,03,12,31,17.30
2013,09,03,12,32,17.40
2013,09,03,12,33,17.40
2013,09,03,12,34,17.40
2013,09,03,12,35,17.50
2013,09,03,12,36,17.60
2013,09,03,12,37,17.60
2013,09,03,12,38,17.70
2013,09,03,12,39,17.70
2013,09,03,12,40,17.70
2013,09,03,12,41,17.70
2013,09,03,12,42,17.70
2013,09,03,12,43,17.70
2013,09,03,12,44,17.70
2013,09,03,12,45,17.80
2013,09,03,12,46,17.80
2013,09,03,12,47,17.90
2013,09,03,12,48,18.00
2013,09,03,12,49,18.00
2013,09,03,12,50,18.10
2013,09,03,12,51,18.10
2013,09,03,12,52,18.20
2013,09,03,12,53,18.20
2013,09,03,12,54,18.30
2013,09,03,12,55,18.40
2013,09,03,12,56,18.40
2013,09,03,12,57,18.50
2013,09,03,12,58,18.50
2013,09,03,12,59,18.50
2013,09,03,13,00,18.60
2013,09,03,13,01,18.60
2013,09,03,13,02,18.60
2013,09,03,13,03,18.70
2013,09,03,13,04,18.70
2013,09,03,13,05,18.80
2013,09,03,13,06,18.80
2013,09,03,13,07,18.80
2013,09,03,13,08,18.90
2013,09,03,13,09,18.90
2013,09,03,13,10,19.00
2013,09,03,13,11,19.00
2013,09,03,13,12,19.10
2013,09,03,13,13,19.20
2013,09,03,13,14,19.30
2013,09,03,13,15,19.30
2013,09,03,13,16,19.40
2013,09,03,13,17,19.60
2013,09,03,13,18,19.70
2013,09,03,13,19,19.70
2013,09,03,13,20,19.80
2013,09,03,13,21,19.80
2013,09,03,13,22,19.90
2013,09,03,13,23,20.00
2013,09,03,13,24,20.00
2013,09,03,13,25,20.10
2013,09,03,13,26,20.10
2013,09,03,13,27,20.20
2013,09,03,13,28,20.20
2013,09,03,13,29,20.30
2013,09,03,13,30,20.30
2013,09,03,13,31,20.40
2013,09,03,13,32,20.40
2013,09,03,13,33,20.40
2013,09,03,13,34,20.50
2013,09,03,13,35,20.50
2013,09,03,13,36,20.50
2013,09,03,13,37,20.50
2013,09,03,13,38,20.50
2013,09,03,13,39,20.50
2013,09,03,13,40,20.40
2013,09,03,13,41,20.50
2013,09,03,13,42,20.50
2013,09,03,13,43,20.50
2013,09,03,13,44,20.50
2013,09,03,13,45,20.50
2013,09,03,13,46,20.40
2013,09,03,13,47,20.40
2013,09,03,13,48,20.40
2013,09,03,13,49,20.40
2013,09,03,13,50,20.40
2013,09,03,13,51,20.40
2013,09,03,13,52,20.40
2013,09,03,13,53,20.40
2013,09,03,13,54,20.50
2013,09,03,13,55,20.50
2013,09,03,13,56,20.50
2013,09,03,13,57,20.60
2013,09,03,13,58,20.60
2013,09,03,13,59,20.60
2013,09,03,14,00,20.60
2013,09,03,14,01,20.60
2013,09,03,14,02,20.60
2013,09,03,14,03,20.60
2013,09,03,14,04,20.70
2013,09,03,14,05,20.80
2013,09,03,14,06,20.90
2013,09,03,14,07,20.90
2013,09,03,14,08,20.90
2013,09,03,14,09,21.00
2013,09,03,14,10,21.00
2013,09,03,14,11,20.90
2013,09,03,14,12,20.90
2013,09,03,14,13,20.80
2013,09,03,14,14,20.80
2013,09,03,14,15,20.70
2013,09,03,14,16,20.70
2013,09,03,14,17,20.70
2013,09,03,14,18,20.70
2013,09,03,14,19,20.70
2013,09,03,14,20,20.80
2013,09,03,14,21,20.80
2013,09,03,14,22,20.80
2013,09,03,14,23,20.80
2013,09,03,14,24,20.70
2013,09,03,14,25,20.70
2013,09,03,14,26,20.80
2013,09,03,14,27,20.80
2013,09,03,14,28,20.80
2013,09,03,14,29,20.70
2013,09,03,14,30,20.70
2013,09,03,14,31,20.70
2013,09,03,14,32,20.80
2013,09,03,14,33,20.80
2013,09,03,14,34,20.80
2013,09,03,14,35,20.80
2013,09,03,14,36,20.80
2013,09,03,14,37,20.80
2013,09,03,14,38,20.80
2013,09,03,14,39,20.80
2013,09,03,14,40,20.70
2013,09,03,14,41,20.70
2013,09,03,14,42,20.70
2013,09,03,14,43,20.80
2013,09,03,14,44,20.80
2013,09,03,14,45,20.80
2013,09,03,14,46,20.90
2013,09,03,14,47,20.90
2013,09,03,14,48,21.00
2013,09,03,14,49,21.00
2013,09,03,14,50,21.10
2013,09,03,14,51,21.10
2013,09,03,14,52,21.00
2013,09,03,14,53,21.00
2013,09,03,14,54,21.00
2013,09,03,14,55,20.90
2013,09,03,14,56,20.90
2013,09,03,14,57,20.80
2013,09,03,14,58,20.70
2013,09,03,14,59,20.60
2013,09,03,15,00,20.60
2013,09,03,15,01,20.50
2013,09,03,15,02,20.50
2013,09,03,15,03,20.40
2013,09,03,15,04,20.40
2013,09,03,15,05,20.40
2013,09,03,15,06,20.30
2013,09,03,15,07,20.30
2013,09,03,15,08,20.30
2013,09,03,15,09,20.30
2013,09,03,15,10,20.30
2013,09,03,15,11,20.30
2013,09,03,15,12,20.30
2013,09,03,15,13,20.30
2013,09,03,15,14,20.30
2013,09,03,15,15,20.30
2013,09,03,15,16,20.30
2013,09,03,15,17,20.30
2013,09,03,15,18,20.20
2013,09,03,15,19,20.20
2013,09,03,15,20,20.20
2013,09,03,15,21,20.20
2013,09,03,15,22,20.20
2013,09,03,15,23,20.20
2013,09,03,15,24,20.20
2013,09,03,15,25,20.10
2013,09,03,15,26,20.10
2013,09,03,15,27,20.00
2013,09,03,15,28,19.90
2013,09,03,15,29,19.90
2013,09,03,15,30,19.80
2013,09,03,15,31,19.80
2013,09,03,15,32,19.70
2013,09,03,15,33,19.60
2013,09,03,15,34,19.60
2013,09,03,15,35,19.50
2013,09,03,15,36,19.40
2013,09,03,15,37,19.40
2013,09,03,15,38,19.30
2013,09,03,15,39,19.20
2013,09,03,15,40,19.20
2013,09,03,15,41,19.20
2013,09,03,15,42,19.10
2013,09,03,15,43,19.10
2013,09,03,15,44,19.10
2013,09,03,15,45,19.10
2013,09,03,15,46,19.20
2013,09,03,15,47,19.20
2013,09,03,15,48,19.20
2013,09,03,15,49,19.20
2013,09,03,15,50,19.20
2013,09,03,15,51,19.20
2013,09,03,15,52,19.20
2013,09,03,15,53,19.20
2013,09,03,15,54,19.20
2013,09,03,15,55,19.20
2013,09,03,15,56,19.20
2013,09,03,15,57,19.20
2013,09,03,15,58,19.20
2013,09,03,15,59,19.20
2013,09,03,16,00,19.20
2013,09,03,16,01,19.20
2013,09,03,16,02,19.20
2013,09,03,16,03,19.20
2013,09,03,16,04,19.20
2013,09,03,16,05,19.20
2013,09,03,16,06,19.20
2013,09,03,16,07,19.20
2013,09,03,16,08,19.20
2013,09,03,16,09,19.20
2013,09,03,16,10,19.20
2013,09,03,16,11,19.30
2013,09,03,16,12,19.30
2013,09,03,16,13,19.30
2013,09,03,16,14,19.30
2013,09,03,16,15,19.40
2013,09,03,16,16,19.40
2013,09,03,16,17,19.50
2013,09,03,16,18,19.60
2013,09,03,16,19,19.70
2013,09,03,16,20,19.80
2013,09,03,16,21,20.00
2013,09,03,16,22,20.10
2013,09,03,16,23,20.20
2013,09,03,16,24,20.30
2013,09,03,16,25,20.40
2013,09,03,16,26,20.40
2013,09,03,16,27,20.50
2013,09,03,16,28,20.50
2013,09,03,16,29,20.60
2013,09,03,16,30,20.60
2013,09,03,16,31,20.70
2013,09,03,16,32,20.70
2013,09,03,16,33,20.70
2013,09,03,16,34,20.80
2013,09,03,16,35,20.80
2013,09,03,16,36,20.70
2013,09,03,16,37,20.70
2013,09,03,16,38,20.70
2013,09,03,16,39,20.60
2013,09,03,16,40,20.60
2013,09,03,16,41,20.50
2013,09,03,16,42,20.40
2013,09,03,16,43,20.40
2013,09,03,16,44,20.40
2013,09,03,16,45,20.40
2013,09,03,16,46,20.40
2013,09,03,16,47,20.40
2013,09,03,16,48,20.40
2013,09,03,16,49,20.30
2013,09,03,16,50,20.30
2013,09,03,16,51,20.20
2013,09,03,16,52,20.20
2013,09,03,16,53,20.10
2013,09,03,16,54,20.00
2013,09,03,16,55,20.00
2013,09,03,16,56,19.90
2013,09,03,16,57,19.80
2013,09,03,16,58,19.80
2013,09,03,16,59,19.70
2013,09,03,17,00,19.70
2013,09,03,17,01,19.70
2013,09,03,17,02,19.70
2013,09,03,17,03,19.60
2013,09,03,17,04,19.60
2013,09,03,17,05,19.50
2013,09,03,17,06,19.50
2013,09,03,17,07,19.50
2013,09,03,17,08,19.40
2013,09,03,17,09,19.40
2013,09,03,17,10,19.40
2013,09,03,17,11,19.40
2013,09,03,17,12,19.40
2013,09,03,17,13,19.40
2013,09,03,17,14,19.40
2013,09,03,17,15,19.40
2013,09,03,17,16,19.40
2013,09,03,17,17,19.40
2013,09,03,17,18,19.40
2013,09,03,17,19,19.30